FW8239 Weather Reports


time (UTC)temp
F
wind
direction
speed
knots
gust
knots
rain 1hr
in
rain 24hr
in
rain mn
in
humidity
%
barometer
mb
20260502180524 0 127 0.0 5.2 0.00 0.00 0.00 71 1016.5
20260502170503 0 95 1.7 7.0 0.00 0.00 0.00 74 1017.2
20260502164056 0 113 0.9 6.1 0.00 0.00 0.00 69 1017.6
20260502163554 0 134 0.9 6.1 0.00 0.00 0.00 68 1017.6
20260502163056 0 41 1.7 6.1 0.00 0.00 0.00 66 1017.6
20260502162552 0 105 0.9 7.0 0.00 0.00 0.00 64 1017.7
20260502162050 0 116 2.6 7.0 0.00 0.00 0.00 60 1017.6
20260502161559 0 117 0.9 6.1 0.00 0.00 0.00 61 1017.6
20260502161050 0 107 0.0 6.1 0.00 0.00 0.00 61 1017.6
20260502160545 0 104 0.9 6.1 0.00 0.00 0.00 59 1017.6
20260502152035 0 82 0.0 4.3 0.00 0.00 0.00 62 1017.7
20260502151534 0 76 0.0 4.3 0.00 0.00 0.00 63 1017.8
20260502151030 0 82 0.0 4.3 0.00 0.00 0.00 63 1017.8
20260502150529 0 83 0.0 1.7 0.00 0.00 0.00 66 1017.8
20260502130553 0 0.0 0.0 0.00 0.00 0.00 1017.0
20260502123545 0 0.0 0.0 0.00 0.00 0.00 1016.8
20260502123043 0 0.0 0.0 0.00 0.00 0.00 1016.8
20260502122542 0 0.0 0.0 0.00 0.00 0.00 1016.7
20260502122041 0 0.0 0.0 0.00 0.00 0.00 1016.7
20260502121547 0 0.0 0.0 0.00 0.00 0.00 1016.6
20260502121039 0 0.0 0.0 0.00 0.00 0.00 1016.6
20260502120537 0 0.0 0.0 0.00 0.00 0.00 1016.6
20260502115533 0 0.0 0.0 0.00 0.00 0.00 1016.5
20260502115033 0 0.0 0.0 0.00 0.00 0.00 1016.5
20260502114531 0 0.0 0.0 0.00 0.00 0.00 1016.5
20260502114029 0 0.0 0.0 0.00 0.00 0.00 1016.5
20260502113527 0 0.0 0.0 0.00 0.00 0.00 1016.5
20260502113026 0 0.0 0.0 0.00 0.00 0.00 1016.4
20260502112528 0 0.0 0.0 0.00 0.00 0.00 1016.3
20260502112023 0 0.0 0.0 0.00 0.00 0.00 1016.2
20260502111521 0 0.0 0.0 0.00 0.00 0.00 1016.2
20260502111020 0 0.0 0.0 0.00 0.00 0.00 1016.1
20260502110519 0 0.0 0.0 0.00 0.00 0.00 1016.1
20260502110018 0 0.0 0.0 0.00 0.00 0.00 1016.1
20260502105516 0 0.0 0.0 0.00 0.00 0.00 1016.0
20260502105015 0 0.0 0.0 0.00 0.00 0.00 1016.0
20260502104512 0 0.0 0.0 0.00 0.00 0.00 1015.9
20260502104011 0 0.0 0.0 0.00 0.00 0.00 1015.9
20260502103509 0 0.0 0.0 0.00 0.00 0.00 1016.0
20260502103008 0 0.0 0.0 0.00 0.00 0.00 1015.9
20260502102506 0 0.0 0.0 0.00 0.00 0.00 1015.8
20260502102006 0 0.0 0.0 0.00 0.00 0.00 1015.9
20260502101504 0 0.0 0.0 0.00 0.00 0.00 1015.9
20260502101002 0 0.0 0.0 0.00 0.00 0.00 1015.9
20260502100503 0 0.0 0.0 0.00 0.00 0.00 1015.9
20260502091045 0 0.0 0.0 0.00 0.00 0.00 1015.7
20260502090546 0 0.0 0.0 0.00 0.00 0.00 1015.7
20260502071513 0 11 0.0 0.0 0.00 0.00 0.00 100 1016.7
20260502071012 0 11 0.0 0.0 0.00 0.00 0.00 100 1016.8
20260502070510 0 11 0.0 0.0 0.00 0.00 0.00 100 1016.8
20260502070009 0 11 0.0 0.0 0.00 0.00 0.00 100 1016.9
20260502065508 0 11 0.0 0.0 0.00 0.00 0.00 100 1016.9
20260502065007 0 11 0.0 0.0 0.00 0.00 0.00 100 1016.8
20260502064505 0 11 0.0 0.0 0.00 0.00 0.00 100 1016.9
20260502064007 0 11 0.0 0.0 0.00 0.00 0.00 100 1017.0
20260502063502 0 11 0.0 0.0 0.00 0.00 0.00 100 1017.1
20260502063100 0 11 0.0 0.0 0.00 0.00 0.00 100 1017.2
20260502062559 0 11 0.0 0.0 0.00 0.00 0.00 100 1017.2
20260502062057 0 11 0.0 0.0 0.00 0.00 0.00 100 1017.2
20260502061556 0 11 0.0 0.0 0.00 0.00 0.00 100 1017.2
20260502061054 0 11 0.0 0.0 0.00 0.00 0.00 100 1017.3
20260502060557 0 11 0.0 0.0 0.00 0.00 0.00 100 1017.3
20260502060052 0 11 0.0 0.0 0.00 0.00 0.00 100 1017.3
20260502055550 0 11 0.0 0.0 0.00 0.00 0.00 100 1017.2
20260502055049 0 11 0.0 0.0 0.00 0.00 0.00 100 1017.3
20260502054548 0 11 0.0 0.0 0.00 0.00 0.00 100 1017.3
20260502054045 0 11 0.0 0.0 0.00 0.00 0.00 100 1017.3
20260502053544 0 11 0.0 0.0 0.00 0.00 0.00 100 1017.3
20260502053046 0 11 0.0 0.0 0.00 0.00 0.00 100 1017.4
20260502052541 0 11 0.0 0.0 0.00 0.00 0.00 100 1017.5
20260502052040 0 11 0.0 0.0 0.00 0.00 0.00 100 1017.5
20260502051544 0 11 0.0 0.0 0.00 0.00 0.00 100 1017.5
20260502051037 0 11 0.0 0.0 0.00 0.00 0.00 100 1017.5
20260502050536 0 11 0.0 0.0 0.00 0.00 0.00 100 1017.7
20260502050038 0 11 0.0 0.0 0.00 0.00 0.00 100 1017.6
20260502045532 0 11 0.0 0.0 0.00 0.00 0.00 100 1017.6
20260502045036 0 11 0.0 0.0 0.00 0.00 0.00 100 1017.7
20260502044531 0 11 0.0 0.0 0.00 0.00 0.00 100 1017.7
20260502044031 0 11 0.0 0.0 0.00 0.00 0.00 100 1017.8
20260502043527 0 11 0.0 0.0 0.00 0.00 0.00 100 1017.9
20260502043025 0 11 0.0 0.0 0.00 0.00 0.00 100 1017.9
20260502042524 0 11 0.0 0.0 0.00 0.00 0.00 100 1018.0
20260502042024 0 11 0.0 0.0 0.00 0.00 0.00 100 1018.0
20260502041524 0 11 0.0 0.0 0.00 0.00 0.00 100 1018.0
20260502041020 0 11 0.0 0.0 0.00 0.00 0.00 100 1018.1
20260502040518 0 11 0.0 0.0 0.00 0.00 0.00 100 1018.1
20260502040016 0 11 0.0 0.0 0.00 0.00 0.00 100 1018.1
20260502035515 0 11 0.0 0.0 0.00 0.00 0.00 100 1018.0
20260502035014 0 11 0.0 0.0 0.00 0.00 0.00 100 1017.9
20260502034512 0 11 0.0 0.0 0.00 0.00 0.00 100 1017.9
20260502034011 0 11 0.0 0.0 0.00 0.00 0.00 100 1017.9
20260502033513 0 11 0.0 0.0 0.00 0.00 0.00 100 1017.8
20260502033007 0 11 0.0 0.0 0.00 0.00 0.00 100 1017.7
20260502032509 0 11 0.0 0.0 0.00 0.00 0.00 100 1017.5
20260502032004 0 11 0.0 0.0 0.00 0.00 0.00 100 1017.4
20260502031503 0 11 0.0 0.0 0.00 0.00 0.00 100 1017.3
20260502031003 0 11 0.0 0.0 0.00 0.00 0.00 100 1017.2
20260502030601 0 11 0.0 0.0 0.00 0.00 0.00 100 1017.1
20260502030100 0 11 0.0 0.0 0.00 0.00 0.00 100 1017.0
20260502025557 0 11 0.0 0.0 0.00 0.00 0.00 100 1017.0
20260502025056 0 11 0.0 0.0 0.00 0.00 0.00 100 1016.8
20260502024556 0 11 0.0 0.0 0.00 0.00 0.00 100 1016.7
20260502024053 0 11 0.0 0.0 0.00 0.00 0.00 100 1016.7
20260502023554 0 11 0.0 0.0 0.00 0.00 0.00 100 1016.5
20260502023054 0 11 0.0 0.0 0.00 0.00 0.00 100 1016.4
20260502022550 0 11 0.0 0.0 0.00 0.00 0.00 100 1016.3
20260502022049 0 11 0.0 0.0 0.00 0.00 0.00 100 1016.2
20260502021546 0 11 0.0 0.0 0.00 0.00 0.00 100 1016.1
20260502021045 0 11 0.0 0.0 0.00 0.00 0.00 100 1016.0
20260502020543 0 11 0.0 0.0 0.00 0.00 0.00 100 1016.0
20260502020045 0 11 0.0 0.0 0.00 0.00 0.00 100 1015.8
20260502015540 0 11 0.0 0.0 0.00 0.00 0.00 100 1015.7
20260502015038 0 11 0.0 0.0 0.00 0.00 0.00 100 1015.7
20260502014538 0 11 0.0 0.0 0.00 0.00 0.00 100 1015.6
20260502014035 0 11 0.0 0.0 0.00 0.00 0.00 100 1015.4
20260502013534 0 11 0.0 0.0 0.00 0.00 0.00 100 1015.3
20260502013034 0 11 0.0 0.0 0.00 0.00 0.00 100 1015.2
20260502012531 0 11 0.0 0.0 0.00 0.00 0.00 100 1015.1
20260502012030 0 11 0.0 0.9 0.00 0.00 0.00 100 1015.0
20260502011528 0 11 0.0 0.9 0.00 0.00 0.00 100 1014.8
20260502011026 0 26 0.0 0.0 0.00 0.00 0.00 100 1014.8
20260502010525 0 26 0.0 0.0 0.00 0.00 0.00 100 1014.7
20260502010025 0 26 0.0 0.0 0.00 0.00 0.00 100 1014.6
20260502005522 0 44 0.0 0.9 0.00 0.00 0.00 100 1014.5
20260502005023 0 49 0.0 1.7 0.00 0.00 0.00 100 1014.5
20260502004520 0 45 0.0 1.7 0.00 0.00 0.00 100 1014.4
20260502004021 0 311 0.0 0.0 0.00 0.00 0.00 100 1014.3
20260502003517 0 311 0.0 0.0 0.00 0.00 0.00 100 1014.2
20260502003015 0 311 0.0 1.7 0.00 0.00 0.00 100 1014.1
20260502002519 0 311 0.0 1.7 0.00 0.00 0.00 100 1014.0
20260502002014 0 268 0.0 5.2 0.00 0.00 0.00 100 1013.8
20260502001511 0 37 0.0 3.5 0.00 0.00 0.00 100 1013.6
20260502001010 0 318 0.9 3.5 0.00 0.00 0.00 100 1013.7
20260502000508 0 229 0.0 0.9 0.00 0.00 0.00 100 1013.7
20260502000006 0 202 0.0 0.9 0.00 0.00 0.00 100 1013.7
20260501235505 0 200 0.0 1.7 0.00 0.00 0.00 100 1013.6
20260501235003 0 283 0.0 2.6 0.00 0.00 0.00 100 1013.5
20260501234502 0 319 0.0 4.3 0.00 0.00 0.00 100 1013.4
20260501234101 0 84 0.9 4.3 0.00 0.00 0.00 100 1013.4
20260501233559 0 89 0.0 2.6 0.00 0.00 0.00 100 1013.2
20260501233108 0 297 0.0 0.9 0.00 0.00 0.00 100 1013.1
20260501232556 0 338 0.0 0.9 0.00 0.00 0.00 100 1012.9
20260501232056 0 18 0.0 5.2 0.00 0.00 0.00 100 1012.9
20260501231614 0 330 0.0 5.2 0.00 0.00 0.00 100 1012.8
20260501231052 0 335 0.0 2.6 0.00 0.00 0.00 100 1012.7
20260501230551 0 241 0.0 2.6 0.00 0.00 0.00 100 1012.7
20260501230050 0 77 0.0 1.7 0.00 0.00 0.00 100 1012.7
20260501225548 0 84 0.0 1.7 0.00 0.00 0.00 100 1012.4
20260501225048 0 122 0.0 1.7 0.00 0.00 0.00 100 1012.5
20260501224547 0 314 0.0 2.6 0.00 0.00 0.00 100 1012.4
20260501224047 0 304 0.0 4.3 0.00 0.00 0.00 100 1012.4
20260501223542 0 73 0.0 4.3 0.00 0.00 0.00 100 1012.4
20260501223107 0 241 0.0 6.1 0.00 0.00 0.00 100 1012.4
20260501222542 0 122 0.0 4.3 0.00 0.00 0.00 99 1012.5
20260501222038 0 50 0.0 7.0 0.00 0.00 0.00 99 1012.6
20260501221536 0 63 1.7 7.0 0.00 0.00 0.00 97 1012.5
20260501221035 0 102 0.9 3.5 0.00 0.00 0.00 97 1012.4
20260501220533 0 57 0.0 3.5 0.00 0.00 0.00 96 1012.5
20260501220032 0 278 0.0 5.2 0.00 0.00 0.00 94 1012.5
20260501215531 0 341 0.9 5.2 0.00 0.00 0.00 92 1012.6
20260501215030 0 98 1.7 5.2 0.00 0.00 0.00 90 1012.6
20260501214528 0 89 0.0 5.2 0.00 0.00 0.00 88 1012.4
20260501214025 0 340 0.9 5.2 0.00 0.00 0.00 86 1012.5
20260501213526 0 36 0.9 5.2 0.00 0.00 0.00 86 1012.5
20260501213023 0 70 0.0 5.2 0.00 0.00 0.00 84 1012.7
20260501212522 0 2 0.0 6.1 0.00 0.00 0.00 82 1012.7
20260501212020 0 306 0.9 6.1 0.00 0.00 0.00 80 1012.8
20260501211519 0 60 0.9 5.2 0.00 0.00 0.00 79 1012.6
20260501211019 0 316 0.9 3.5 0.00 0.00 0.00 77 1012.6
20260501210516 0 335 0.0 6.1 0.00 0.00 0.00 77 1012.7
20260501210015 0 303 1.7 4.3 0.00 0.00 0.00 77 1012.8
20260501205513 0 188 0.9 6.1 0.00 0.00 0.00 76 1012.8
20260501205012 0 281 0.9 6.1 0.00 0.00 0.00 73 1012.7
20260501204518 0 314 0.0 4.3 0.00 0.00 0.00 72 1012.7
20260501204009 0 283 1.7 4.3 0.00 0.00 0.00 70 1012.9
20260501203507 0 285 0.9 4.3 0.00 0.00 0.00 71 1013.1
20260501203006 0 328 0.0 4.3 0.00 0.00 0.00 72 1013.0
20260501202504 0 105 0.9 4.3 0.00 0.00 0.00 72 1013.0
20260501202005 0 122 1.7 4.3 0.00 0.00 0.00 74 1013.2
20260501201502 0 283 0.9 3.5 0.00 0.00 0.00 73 1013.4
20260501201101 0 353 0.0 3.5 0.00 0.00 0.00 75 1013.4
20260501200600 0 304 0.9 2.6 0.00 0.00 0.00 73 1013.4
20260501200057 0 337 0.9 2.6 0.00 0.00 0.00 73 1013.6
20260501195556 0 315 0.0 1.7 0.00 0.00 0.00 73 1013.6
20260501195057 0 52 0.0 4.3 0.00 0.00 0.00 72 1013.7
20260501194555 0 335 0.9 4.3 0.00 0.00 0.00 73 1013.9
20260501194052 0 354 0.9 3.5 0.00 0.00 0.00 75 1013.9
20260501193549 0 264 0.0 2.6 0.00 0.00 0.00 77 1013.9
20260501193051 0 7 0.0 1.7 0.00 0.00 0.00 76 1013.9
20260501192551 0 266 0.0 6.1 0.00 0.00 0.00 73 1014.0
20260501192045 0 82 1.7 6.1 0.00 0.00 0.00 72 1014.0
20260501191544 0 98 0.0 3.5 0.00 0.00 0.00 72 1014.0
20260501191045 0 77 0.9 3.5 0.00 0.00 0.00 71 1014.3
20260501190541 0 119 0.0 2.6 0.00 0.00 0.00 70 1014.3
20260501190040 0 336 0.0 5.2 0.00 0.00 0.00 69 1014.4
20260501185538 0 56 1.7 5.2 0.00 0.00 0.00 72 1014.6
20260501185040 0 46 0.0 2.6 0.00 0.00 0.00 74 1014.6
20260501184538 0 26 0.0 2.6 0.00 0.00 0.00 76 1014.8
20260501184038 0 195 0.0 1.7 0.00 0.00 0.00 77 1014.8
20260501183542 0 85 0.0 2.6 0.00 0.00 0.00 78 1014.9
20260501183040 0 98 0.0 3.5 0.00 0.00 0.00 78 1015.0
20260501182538 0 39 0.9 3.5 0.00 0.00 0.00 80 1014.9
20260501182037 0 26 0.0 1.7 0.00 0.00 0.00 82 1015.0
20260501181537 0 311 0.0 4.3 0.00 0.00 0.00 83 1015.1
20260501181039 0 64 0.9 4.3 0.00 0.00 0.00 83 1015.1